Time,TemperatureF,DewpointF,PressureIn,WindDirection,WindDirectionDegrees,WindSpeedMPH,WindSpeedGustMPH,Humidity,HourlyPrecipIn,Conditions,Clouds,dailyrainin,SoftwareType,DateUTC
2013-09-10 00:12:00,59.0,57.0,29.81,West,277,0.0,0.0,92,0.00,,,0.00,,2013-09-10 07:12:00,
2013-09-10 00:21:00,59.0,57.0,29.80,West,277,0.0,0.0,92,0.00,,,0.00,,2013-09-10 07:21:00,
2013-09-10 00:52:00,58.0,56.0,29.81,West,277,0.0,0.0,93,0.00,,,0.00,,2013-09-10 07:52:00,
2013-09-10 01:11:00,58.0,56.0,29.80,West,277,0.0,0.0,94,0.00,,,0.00,,2013-09-10 08:11:00,
2013-09-10 01:22:00,58.0,57.0,29.81,West,277,0.0,0.0,95,0.00,,,0.00,,2013-09-10 08:22:00,
2013-09-10 01:52:00,58.0,57.0,29.80,West,277,0.0,0.0,95,0.00,,,0.00,,2013-09-10 08:52:00,
2013-09-10 02:11:00,58.0,57.0,29.80,West,277,0.0,0.0,96,0.00,,,0.00,,2013-09-10 09:11:00,
2013-09-10 02:21:00,58.0,57.0,29.80,West,277,0.0,0.0,96,0.00,,,0.00,,2013-09-10 09:21:00,
2013-09-10 02:54:00,58.0,57.0,29.81,West,277,0.0,0.0,96,0.00,,,0.00,,2013-09-10 09:54:00,
2013-09-10 03:13:00,58.0,57.0,29.81,West,277,0.0,1.0,96,0.00,,,0.00,,2013-09-10 10:13:00,
2013-09-10 03:23:00,58.0,57.0,29.81,West,277,0.0,1.0,96,0.00,,,0.00,,2013-09-10 10:23:00,
2013-09-10 03:53:00,57.0,56.0,29.82,West,277,0.0,0.0,96,0.00,,,0.00,,2013-09-10 10:53:00,
2013-09-10 04:22:00,58.0,57.0,29.83,West,277,0.0,0.0,96,0.00,,,0.00,,2013-09-10 11:22:00,
2013-09-10 04:52:00,58.0,57.0,29.83,West,277,0.0,1.0,96,0.00,,,0.00,,2013-09-10 11:52:00,
2013-09-10 05:11:00,58.0,57.0,29.84,West,277,0.0,0.0,96,0.00,,,0.00,,2013-09-10 12:11:00,
2013-09-10 05:22:00,57.0,56.0,29.84,West,277,0.0,0.0,96,0.00,,,0.00,,2013-09-10 12:22:00,
2013-09-10 05:42:00,58.0,57.0,29.84,West,277,0.0,0.0,96,0.00,,,0.00,,2013-09-10 12:42:00,
2013-09-10 05:52:00,58.0,57.0,29.85,West,277,0.0,0.0,96,0.00,,,0.00,,2013-09-10 12:52:00,
2013-09-10 06:11:00,58.0,57.0,29.85,West,277,0.0,0.0,96,0.00,,,0.00,,2013-09-10 13:11:00,
2013-09-10 06:21:00,58.0,57.0,29.85,West,277,0.0,0.0,96,0.00,,,0.00,,2013-09-10 13:21:00,
2013-09-10 06:41:00,58.0,57.0,29.85,West,277,0.0,1.0,96,0.00,,,0.00,,2013-09-10 13:41:00,
2013-09-10 06:52:00,58.0,57.0,29.85,West,277,0.0,0.0,96,0.00,,,0.00,,2013-09-10 13:52:00,
2013-09-10 07:21:00,57.0,56.0,29.86,West,277,0.0,0.0,96,0.00,,,0.00,,2013-09-10 14:21:00,
2013-09-10 07:52:00,58.0,57.0,29.87,West,277,0.0,0.0,95,0.00,,,0.00,,2013-09-10 14:52:00,
2013-09-10 08:22:00,58.0,56.0,29.88,West,277,0.0,0.0,94,0.00,,,0.00,,2013-09-10 15:22:00,
2013-09-10 08:43:00,59.0,57.0,29.88,West,277,0.0,0.0,92,0.00,,,0.00,,2013-09-10 15:43:00,
2013-09-10 08:54:00,61.0,58.0,29.89,West,277,0.0,1.0,89,0.00,,,0.00,,2013-09-10 15:54:00,
2013-09-10 09:12:00,62.0,58.0,29.89,West,277,0.0,1.0,87,0.00,,,0.00,,2013-09-10 16:12:00,
2013-09-10 09:23:00,62.0,58.0,29.90,West,271,0.0,6.0,86,0.00,,,0.00,,2013-09-10 16:23:00,
2013-09-10 09:42:00,63.0,58.0,29.89,West,269,0.0,6.0,83,0.00,,,0.00,,2013-09-10 16:42:00,
2013-09-10 09:53:00,65.0,59.0,29.90,West,269,0.0,1.0,81,0.00,,,0.00,,2013-09-10 16:53:00,
2013-09-10 10:23:00,67.0,60.0,29.89,WSW,250,0.0,7.0,77,0.00,,,0.00,,2013-09-10 17:23:00,
2013-09-10 10:52:00,70.0,61.0,29.89,SW,217,2.0,7.0,72,0.00,,,0.00,,2013-09-10 17:52:00,
2013-09-10 11:12:00,70.0,60.0,29.89,West,263,1.0,9.0,71,0.00,,,0.00,,2013-09-10 18:12:00,
2013-09-10 11:21:00,72.0,60.0,29.89,West,260,1.0,6.0,67,0.00,,,0.00,,2013-09-10 18:21:00,
2013-09-10 11:52:00,75.0,61.0,29.89,WNW,290,1.0,7.0,61,0.00,,,0.00,,2013-09-10 18:52:00,
2013-09-10 12:21:00,76.0,60.0,29.88,West,265,0.0,5.0,58,0.00,,,0.00,,2013-09-10 19:21:00,
2013-09-10 12:52:00,76.0,59.0,29.88,South,181,3.0,11.0,56,0.00,,,0.00,,2013-09-10 19:52:00,
2013-09-10 13:21:00,78.0,60.0,29.88,SSW,203,3.0,8.0,54,0.00,,,0.00,,2013-09-10 20:21:00,
2013-09-10 13:52:00,78.0,59.0,29.87,WSW,238,4.0,9.0,53,0.00,,,0.00,,2013-09-10 20:52:00,
2013-09-10 14:22:00,77.0,59.0,29.86,WSW,248,4.0,9.0,54,0.00,,,0.00,,2013-09-10 21:22:00,
2013-09-10 14:54:00,76.0,60.0,29.86,SW,227,1.0,10.0,57,0.00,,,0.00,,2013-09-10 21:54:00,
2013-09-10 15:13:00,76.0,59.0,29.86,SSW,210,5.0,9.0,56,0.00,,,0.00,,2013-09-10 22:13:00,
2013-09-10 15:24:00,77.0,60.0,29.85,WSW,245,3.0,8.0,55,0.00,,,0.00,,2013-09-10 22:24:00,
2013-09-10 15:42:00,77.0,59.0,29.85,SSW,207,5.0,9.0,53,0.00,,,0.00,,2013-09-10 22:42:00,
2013-09-10 15:54:00,76.0,59.0,29.85,WSW,252,5.0,9.0,55,0.00,,,0.00,,2013-09-10 22:54:00,
2013-09-10 16:12:00,76.0,59.0,29.85,SW,219,5.0,8.0,56,0.00,,,0.00,,2013-09-10 23:12:00,
2013-09-10 16:22:00,76.0,60.0,29.85,SSW,203,0.0,9.0,58,0.00,,,0.00,,2013-09-10 23:22:00,
2013-09-10 16:53:00,74.0,59.0,29.85,WSW,238,0.0,9.0,59,0.00,,,0.00,,2013-09-10 23:53:00,
2013-09-10 17:11:00,75.0,59.0,29.85,West,260,0.0,4.0,58,0.00,,,0.00,,2013-09-11 00:11:00,
2013-09-10 17:22:00,75.0,59.0,29.85,SW,217,3.0,8.0,58,0.00,,,0.00,,2013-09-11 00:22:00,
2013-09-10 17:42:00,75.0,59.0,29.85,SW,227,1.0,6.0,57,0.00,,,0.00,,2013-09-11 00:42:00,
2013-09-10 17:52:00,74.0,58.0,29.85,SW,227,2.0,6.0,58,0.00,,,0.00,,2013-09-11 00:52:00,
2013-09-10 18:11:00,74.0,59.0,29.85,SW,228,0.0,6.0,60,0.00,,,0.00,,2013-09-11 01:11:00,
2013-09-10 18:21:00,73.0,59.0,29.85,SW,229,1.0,6.0,61,0.00,,,0.00,,2013-09-11 01:21:00,
2013-09-10 18:41:00,72.0,59.0,29.86,SW,229,0.0,5.0,64,0.00,,,0.00,,2013-09-11 01:41:00,
2013-09-10 18:53:00,71.0,59.0,29.86,SW,229,0.0,2.0,66,0.00,,,0.00,,2013-09-11 01:53:00,
2013-09-10 19:22:00,68.0,58.0,29.87,SW,229,0.0,3.0,71,0.00,,,0.00,,2013-09-11 02:22:00,
2013-09-10 19:43:00,67.0,58.0,29.88,SW,229,0.0,1.0,74,0.00,,,0.00,,2013-09-11 02:43:00,
2013-09-10 19:52:00,66.0,58.0,29.88,SW,229,0.0,1.0,76,0.00,,,0.00,,2013-09-11 02:52:00,
2013-09-10 20:12:00,65.0,58.0,29.88,SW,229,0.0,0.0,78,0.00,,,0.00,,2013-09-11 03:12:00,
2013-09-10 20:22:00,64.0,58.0,29.89,SW,229,0.0,0.0,80,0.00,,,0.00,,2013-09-11 03:22:00,
2013-09-10 20:54:00,63.0,58.0,29.90,SW,229,0.0,0.0,83,0.00,,,0.00,,2013-09-11 03:54:00,
2013-09-10 21:14:00,63.0,58.0,29.90,SW,229,0.0,0.0,83,0.00,,,0.00,,2013-09-11 04:14:00,
2013-09-10 21:24:00,63.0,58.0,29.91,SW,229,0.0,0.0,83,0.00,,,0.00,,2013-09-11 04:24:00,
2013-09-10 21:43:00,62.0,57.0,29.91,SW,229,0.0,0.0,84,0.00,,,0.00,,2013-09-11 04:43:00,
2013-09-10 21:53:00,61.0,56.0,29.91,SW,229,0.0,0.0,85,0.00,,,0.00,,2013-09-11 04:53:00,
2013-09-10 22:12:00,61.0,56.0,29.92,SW,229,0.0,0.0,85,0.00,,,0.00,,2013-09-11 05:12:00,
2013-09-10 22:22:00,61.0,57.0,29.92,SW,229,0.0,0.0,87,0.00,,,0.00,,2013-09-11 05:22:00,
2013-09-10 22:53:00,60.0,56.0,29.93,SW,229,0.0,0.0,88,0.00,,,0.00,,2013-09-11 05:53:00,
2013-09-10 23:12:00,60.0,57.0,29.92,SW,229,0.0,0.0,89,0.00,,,0.00,,2013-09-11 06:12:00,
2013-09-10 23:21:00,60.0,57.0,29.92,SW,229,0.0,0.0,89,0.00,,,0.00,,2013-09-11 06:21:00,
2013-09-10 23:42:00,60.0,57.0,29.92,SW,229,0.0,0.0,89,0.00,,,0.00,,2013-09-11 06:42:00,
2013-09-10 23:52:00,60.0,57.0,29.92,SW,229,0.0,0.0,89,0.00,,,0.00,,2013-09-11 06:52:00,